#timestamp,LO_Frequency,Hit,StdDev 
1590793215.4,286047000.6,N
1590793235.2,286047002.7,N
1590793255.0,286046999.8,N
1590793255.9,286046999.8,N
1590793275.8,286047000.0,N
1590793295.6,286046999.9,N
1590793315.5,286047000.4,N
1590793335.3,286047000.5,N
1590793355.1,286046998.7,N
1590793375.9,286046998.6,N
1590793395.7,286046998.1,N
1590793415.6,286047000.8,N
1590793435.4,286047000.6,N
1590793455.2,286047000.7,N
1590793475.1,286047000.6,N
1590793476.0,286047000.6,N
1590793495.8,286047000.0,N
1590793515.6,286047000.3,N
1590793535.5,286047002.3,N
1590793555.3,286046999.9,N
1590793575.2,286047000.3,N
1590793595.9,286046999.9,N
1590793615.7,286047000.3,N
1590793635.6,286047000.5,N
1590793655.4,286047000.2,N
1590793675.2,286047000.2,N
1590793695.1,286047000.5,N
1590793696.0,286047000.5,N
1590793715.8,286047000.6,N
1590793735.7,286046998.5,N
1590793755.5,286046997.2,Y
1590793775.3,286046995.7,P
1590793795.2,286046996.3,N
1590793815.0,286046997.5,N
1590793815.9,286046997.5,N
1590793835.8,286046998.0,N
1590793855.6,286046996.1,N
1590793875.4,286046995.6,Y
1590793895.3,286046999.0,P
1590793915.1,286046998.2,N
1590793935.9,286047000.7,N
1590793955.7,286046998.4,N
1590793975.5,286046996.9,N
1590793995.4,286046999.4,N
1590794015.2,286046998.1,N
1590794035.0,286047000.7,N
1590794035.9,286047000.7,N
1590794055.8,286046998.2,N
1590794075.6,286046998.5,N
1590794095.5,286046998.7,N
1590794115.3,286046999.2,N
1590794135.1,286046999.5,N
1590794155.9,286046996.5,Y
1590794175.7,286046998.6,P
1590794195.5,286046998.6,P
1590794215.4,286047000.7,P
1590794235.2,286046998.8,N
1590794255.1,286046998.9,N
1590794256.0,286046998.9,N
1590794275.8,286046998.2,N
1590794295.6,286046999.2,N
1590794315.5,286046997.1,Y
1590794335.3,286046998.9,P
1590794355.1,286046998.9,P
1590794375.9,286047000.8,P
1590794395.7,286047000.1,N
1590794415.6,286047000.3,N
1590794435.4,286047002.1,N
1590794455.2,286046999.9,N
1590794475.1,286047000.9,N
1590794476.0,286047000.9,N
1590794495.8,286047000.7,N
1590794515.6,286046998.2,N
1590794535.5,286046998.7,N
1590794555.3,286046998.7,N
1590794575.2,286047000.3,N
1590794595.9,286047002.6,N
1590794615.7,286047002.8,N
1590794635.6,286047002.3,N
1590794655.4,286047000.0,N
1590794675.2,286047000.1,N
1590794695.1,286046998.1,N
1590794696.0,286046998.1,N
1590794715.8,286046998.7,N
1590794735.6,286046996.7,N
1590794755.5,286046996.6,N
1590794775.3,286046997.2,N
1590794795.2,286046999.1,N
1590794815.9,286046998.5,N
1590794835.7,286046999.9,N
1590794855.6,286047000.3,N
1590794875.4,286047000.8,N
1590794895.2,286046999.2,N
1590794915.1,286046997.4,N
1590794916.0,286046997.4,N
1590794935.8,286046997.5,N
1590794955.7,286046996.5,N
1590794975.5,286046999.2,N
1590794995.3,286046996.9,N
1590795015.2,286046995.8,N
1590795035.0,286046995.3,N
1590795035.9,286046995.3,N
1590795055.7,286046995.4,N
1590795075.6,286046997.7,N
1590795095.4,286046995.5,N
1590795115.3,286046995.1,N
1590795135.1,286046995.4,N
1590795136.0,286046995.4,N
1590795155.8,286046997.7,N
1590795175.7,286046998.0,N
1590795195.5,286046997.5,N
1590795215.3,286046996.2,N
1590795235.2,286046996.2,N
1590795255.0,286046995.6,N
1590795255.9,286046995.6,N
1590795275.8,286046994.3,Y
1590795295.6,286046996.6,P
1590795315.4,286046996.5,P
1590795335.3,286046996.6,P
1590795355.1,286046997.4,Y
1590795375.9,286046999.9,P
1590795395.7,286047000.0,N
1590795415.5,286047002.8,N
1590795435.4,286047002.8,N
1590795455.2,286047002.4,N
1590795475.0,286047001.9,N
1590795475.9,286047001.9,N
1590795495.8,286047001.3,N
1590795515.6,286047002.4,N
1590795535.4,286047004.3,N
1590795555.3,286047005.7,N
1590795575.1,286047004.7,N
1590795595.9,286047007.4,Y
1590795615.7,286047003.4,P
1590795635.5,286047005.7,P
1590795655.4,286047005.7,P
1590795675.2,286047007.6,Y
1590795695.1,286047002.5,P
1590795696.0,286047002.5,N
1590795715.8,286047001.6,N
1590795735.6,286047002.0,N
1590795755.5,286047000.1,N
1590795775.3,286046999.9,N
1590795795.1,286046998.9,N
1590795815.9,286046999.1,N
1590795835.7,286046998.7,N
1590795855.5,286047000.3,N
1590795875.4,286046999.5,N
1590795895.2,286046998.0,N
1590795915.1,286046996.0,N
1590795916.0,286046996.0,N
1590795935.8,286046994.6,N
1590795955.6,286046992.0,Y
1590795975.5,286046993.4,P
1590795995.3,286046997.1,N
1590796015.2,286046999.1,N
1590796035.9,286047001.1,N
1590796055.7,286047001.2,N
1590796075.6,286046998.4,N
1590796095.4,286046996.9,N
1590796115.2,286046997.1,N
1590796135.1,286046997.6,N
1590796136.0,286046997.6,N
1590796155.8,286046998.0,N
1590796175.6,286046997.9,N
1590796195.5,286046997.2,N
1590796215.3,286046997.2,N
1590796235.2,286046997.9,N
1590796255.9,286046995.5,N
1590796275.7,286046996.3,N
1590796295.6,286046995.9,N
1590796315.4,286046995.4,N
1590796335.2,286046997.5,N
1590796355.1,286046997.2,N
1590796356.0,286046997.2,N
1590796375.8,286046998.8,N
1590796395.7,286046998.8,N
1590796415.5,286047000.0,N
1590796435.3,286047000.7,N
1590796455.2,286046998.4,N
1590796475.0,286046998.5,N
1590796475.9,286046998.5,N
1590796495.7,286047001.1,N
1590796515.6,286046998.2,N
1590796535.4,286046999.0,N
1590796555.3,286047000.0,N
1590796575.1,286046998.1,N
1590796576.0,286046998.1,N
1590796595.8,286046999.2,N
1590796615.7,286046998.3,N
1590796635.5,286047000.5,N
1590796655.3,286047002.0,N
1590796675.2,286047001.4,N
1590796695.0,286047003.9,N
1590796695.9,286047003.9,N
1590796715.8,286047001.9,N
1590796735.6,286047001.5,N
1590796755.4,286047005.9,N
1590796775.3,286047003.3,N
1590796795.1,286047005.0,N
